N0TOA-13 Weather Reports


Display with metric or nautical units.
time (UTC)temp
F
wind
direction
speed
MPH
gust
MPH
rain 1hr
in
rain 24hr
in
rain mn
in
humidity
%
barometer
mb
20260508095005 43 137 1.0 1.0 0.00 0.00 0.00 76 991.8
20260508094004 43 327 0.0 2.0 0.00 0.00 0.00 89 1017.8
20260508093004 43 333 0.0 1.0 0.00 0.00 0.00 89 1017.8
20260508092005 44 137 1.0 1.0 0.00 0.00 0.00 73 992.1
20260508091005 44 137 1.0 2.0 0.00 0.00 0.00 73 992.1
20260508091003 44 0 0.0 2.0 0.00 0.00 0.00 87 1018.0
20260508090005 44 137 1.0 1.0 0.00 0.00 0.00 73 992.0
20260508085005 44 137 1.0 1.0 0.00 0.00 0.00 73 992.1
20260508084004 45 233 0.0 1.0 0.00 0.00 0.00 85 1018.0
20260508083004 45 16 1.0 2.0 0.00 0.00 0.00 84 1018.2
20260508082004 46 273 0.0 2.0 0.00 0.00 0.00 84 1018.3
20260508081004 46 137 1.0 2.0 0.00 0.00 0.00 65 992.4
20260508080005 46 137 1.0 2.0 0.00 0.00 0.00 65 992.5
20260508075003 47 317 0.0 3.0 0.00 0.00 0.00 79 1018.3
20260508074005 48 137 1.0 2.0 0.00 0.00 0.00 65 992.5
20260508074003 48 310 1.0 2.0 0.00 0.00 0.00 78 1018.3
20260508073005 48 137 1.0 2.0 0.00 0.00 0.00 60 992.4
20260508072005 49 137 1.0 2.0 0.00 0.00 0.00 60 992.3
20260508071005 49 137 1.0 2.0 0.00 0.00 0.00 60 992.3
20260508070005 50 137 1.0 2.0 0.00 0.00 0.00 60 992.3
20260508065005 51 46 0.0 2.0 0.00 0.00 0.00 70 1017.9
20260508064005 51 137 1.0 3.0 0.00 0.00 0.00 60 992.2
20260508064003 51 352 1.0 3.0 0.00 0.00 0.00 68 1018.1
20260508063005 52 137 1.0 2.0 0.00 0.00 0.00 48 992.5
20260508062005 52 137 1.0 3.0 0.00 0.00 0.00 48 992.8
20260508061004 52 339 2.0 3.0 0.00 0.00 0.00 65 1018.4
20260508060005 52 137 1.0 2.0 0.00 0.00 0.00 48 992.0
20260508055004 52 137 1.0 2.0 0.00 0.00 0.00 48 991.8
20260508054004 52 89 0.0 2.0 0.00 0.00 0.00 64 1017.7
20260508053004 52 78 0.0 2.0 0.00 0.00 0.00 64 1017.7
20260508052005 53 137 1.0 3.0 0.00 0.00 0.00 37 991.7
20260508051004 53 73 1.0 3.0 0.00 0.00 0.00 64 1017.6
20260508050005 53 137 1.0 6.0 0.00 0.00 0.00 37 992.1
20260508045005 54 137 1.0 3.0 0.00 0.00 0.00 37 992.2
20260508044004 54 74 2.0 3.0 0.00 0.00 0.00 58 1017.5
20260508043004 54 51 1.0 5.0 0.00 0.00 0.00 58 1017.3
20260508042005 55 137 1.0 6.0 0.00 0.00 0.00 35 991.3
20260508041005 56 137 1.0 7.0 0.00 0.00 0.00 35 991.5
20260508040005 57 137 1.0 6.0 0.00 0.00 0.00 35 991.5
20260508035005 58 137 1.0 2.0 0.00 0.00 0.00 35 991.5
20260508034005 58 137 1.0 2.0 0.00 0.00 0.00 35 991.4
20260508033004 58 345 1.0 2.0 0.00 0.00 0.00 43 1017.2
20260508032004 59 137 1.0 2.0 0.00 0.00 0.00 28 991.3
20260508031005 59 137 1.0 3.0 0.00 0.00 0.00 28 991.1
20260508031003 59 90 0.0 2.0 0.00 0.00 0.00 42 1017.0
20260508030005 59 137 1.0 3.0 0.00 0.00 0.00 28 991.6
20260508025004 59 78 1.0 3.0 0.00 0.00 0.00 41 1017.1
20260508024004 59 137 1.0 5.0 0.00 0.00 0.00 28 991.1
20260508023005 60 137 1.0 5.0 0.00 0.00 0.00 28 990.8
20260508022005 60 137 1.0 5.0 0.00 0.00 0.00 28 990.9
20260508021005 61 137 1.0 9.0 0.00 0.00 0.00 28 991.0
20260508020004 62 336 3.0 9.0 0.00 0.00 0.00 34 1016.6
20260508015004 63 137 1.0 6.0 0.00 0.00 0.00 28 990.5
20260508014004 63 137 1.0 2.0 0.00 0.00 0.00 28 990.2
20260508013005 64 137 1.0 2.0 0.00 0.00 0.00 22 990.0
20260508012004 64 137 1.0 2.0 0.00 0.00 0.00 22 989.9
20260508011003 64 339 1.0 2.0 0.00 0.00 0.00 28 1015.7
20260508010004 65 334 1.0 2.0 0.00 0.00 0.00 28 1015.6
20260508005004 65 1 0.0 1.0 0.00 0.00 0.00 28 1015.6
20260508004005 65 137 1.0 3.0 0.00 0.00 0.00 22 989.8
20260508003005 65 137 1.0 2.0 0.00 0.00 0.00 23 989.8
20260508002004 66 207 1.0 3.0 0.00 0.00 0.00 28 1015.6
20260508001005 67 137 1.0 7.0 0.00 0.00 0.00 23 989.7
20260508000004 69 267 2.0 7.0 0.00 0.00 0.00 26 1015.7
20260507235005 69 137 1.0 5.0 0.00 0.00 0.00 23 989.8
20260507235003 69 176 2.0 5.0 0.00 0.00 0.00 26 1015.7
20260507234004 68 251 1.0 6.0 0.00 0.00 0.00 27 1015.7
20260507233005 68 137 1.0 6.0 0.00 0.00 0.00 24 989.9
20260507232004 68 137 1.0 6.0 0.00 0.00 0.00 24 989.9
20260507231004 68 137 1.0 6.0 0.00 0.00 0.00 24 989.9
20260507230005 69 137 1.0 9.0 0.00 0.00 0.00 24 990.0
20260507224004 69 330 1.0 8.0 0.00 0.00 0.00 27 1015.9
20260507223004 69 298 3.0 8.0 0.00 0.00 0.00 28 1016.0
20260507222004 68 300 1.0 10.0 0.00 0.00 0.00 27 1016.0
20260507221004 68 323 3.0 7.0 0.00 0.00 0.00 27 1016.1
20260507220005 68 137 1.0 12.0 0.00 0.00 0.00 26 990.4
20260507215005 67 137 1.0 9.0 0.00 0.00 0.00 26 990.5
20260507215003 67 347 3.0 9.0 0.00 0.00 0.00 27 1016.4
20260507214004 67 345 3.0 9.0 0.00 0.00 0.00 28 1016.4
20260507213004 66 344 4.0 8.0 0.00 0.00 0.00 28 1016.6
20260507212004 66 137 1.0 12.0 0.00 0.00 0.00 28 990.6
20260507211005 67 137 1.0 12.0 0.00 0.00 0.00 28 990.7
20260507211003 67 349 4.0 12.0 0.00 0.00 0.00 28 1016.6
20260507210005 67 328 3.0 9.0 0.00 0.00 0.00 28 1016.7
20260507205005 66 137 1.0 12.0 0.00 0.00 0.00 28 990.9
20260507204005 66 137 1.0 10.0 0.00 0.00 0.00 28 991.0
20260507204003 66 351 3.0 10.0 0.00 0.00 0.00 29 1016.9
20260507203005 66 137 1.0 10.0 0.00 0.00 0.00 33 991.1
20260507202005 66 137 1.0 9.0 0.00 0.00 0.00 33 991.2
20260507201005 66 137 1.0 8.0 0.00 0.00 0.00 33 991.4
20260507200004 65 137 1.0 8.0 0.00 0.00 0.00 33 991.5
20260507195004 65 306 3.0 7.0 0.00 0.00 0.00 33 1017.5
20260507194003 64 333 3.0 8.0 0.00 0.00 0.00 33 1017.6
20260507193005 63 137 1.0 8.0 0.00 0.00 0.00 38 991.8
20260507192005 63 137 1.0 5.0 0.00 0.00 0.00 38 991.8
20260507191004 63 264 2.0 6.0 0.00 0.00 0.00 33 1017.7
20260507190005 63 137 1.0 7.0 0.00 0.00 0.00 38 992.0
20260507185004 62 249 3.0 8.0 0.00 0.00 0.00 35 1017.8
20260507184004 62 137 1.0 8.0 0.00 0.00 0.00 38 992.0
20260507183004 62 171 3.0 7.0 0.00 0.00 0.00 36 1017.9
20260507182005 61 137 1.0 7.0 0.00 0.00 0.00 40 992.1
20260507181004 61 137 1.0 7.0 0.00 0.00 0.00 40 992.3
20260507180004 60 137 1.0 7.0 0.00 0.00 0.00 40 992.3
20260507175004 60 290 3.0 9.0 0.00 0.00 0.00 37 1018.1
20260507174004 60 137 1.0 8.0 0.00 0.00 0.00 40 992.2
20260507173005 59 137 1.0 8.0 0.00 0.00 0.00 40 992.3
20260507172004 58 195 2.0 8.0 0.00 0.00 0.00 40 1018.3
20260507171004 57 231 2.0 8.0 0.00 0.00 0.00 40 1018.4
20260507170004 57 239 2.0 6.0 0.00 0.00 0.00 41 1018.5
20260507165005 56 137 1.0 7.0 0.00 0.00 0.00 40 992.7
20260507164003 55 271 3.0 7.0 0.00 0.00 0.00 41 1018.7
20260507163004 55 247 2.0 6.0 0.00 0.00 0.00 43 1018.7
20260507162004 54 137 1.0 6.0 0.00 0.00 0.00 41 992.9
20260507161005 54 137 1.0 6.0 0.00 0.00 0.00 41 993.0
20260507160005 53 137 1.0 7.0 0.00 0.00 0.00 41 993.1
20260507155005 52 137 1.0 6.0 0.00 0.00 0.00 41 993.1
20260507154005 51 137 1.0 8.0 0.00 0.00 0.00 41 993.1
20260507153004 51 233 3.0 8.0 0.00 0.00 0.00 46 1019.0
20260507152004 50 227 3.0 9.0 0.00 0.00 0.00 47 1019.0
20260507151004 50 191 3.0 7.0 0.00 0.00 0.00 47 1019.1
20260507150005 49 137 1.0 6.0 0.00 0.00 0.00 41 993.2
20260507145005 48 137 1.0 6.0 0.00 0.00 0.00 41 993.1
20260507145003 48 220 2.0 6.0 0.00 0.00 0.00 48 1019.0
20260507144005 47 137 1.0 6.0 0.00 0.00 0.00 41 993.2
20260507144003 47 252 2.0 6.0 0.00 0.00 0.00 47 1019.1
20260507143004 46 242 2.0 7.0 0.00 0.00 0.00 50 1019.0
20260507142003 45 194 3.0 7.0 0.00 0.00 0.00 51 1019.0
20260507141004 45 213 2.0 8.0 0.00 0.00 0.00 51 1019.0
20260507140005 44 137 1.0 6.0 0.00 0.00 0.00 44 993.1
20260507135004 43 137 1.0 8.0 0.00 0.00 0.00 44 993.1
20260507134004 43 216 2.0 7.0 0.00 0.00 0.00 52 1019.0
20260507133004 42 229 2.0 8.0 0.00 0.00 0.00 52 1019.0
20260507132004 41 137 1.0 8.0 0.00 0.00 0.00 44 993.0
20260507131005 40 137 1.0 7.0 0.00 0.00 0.00 44 993.0
20260507130005 40 137 1.0 5.0 0.00 0.00 0.00 44 992.9
20260507125004 39 137 1.0 6.0 0.00 0.00 0.00 44 992.8
20260507124004 37 184 2.0 6.0 0.00 0.00 0.00 58 1018.7
20260507122005 37 186 2.0 7.0 0.00 0.00 0.00 59 1018.5
20260507121005 37 137 1.0 6.0 0.00 0.00 0.00 42 992.6
20260507121003 37 150 1.0 6.0 0.00 0.00 0.00 59 1018.5
20260507120005 37 137 1.0 5.0 0.00 0.00 0.00 42 992.6
20260507115004 37 193 2.0 6.0 0.00 0.00 0.00 58 1018.5
20260507114004 37 137 1.0 8.0 0.00 0.00 0.00 42 992.6
20260507113005 37 137 1.0 8.0 0.00 0.00 0.00 42 992.4
20260507112004 37 217 2.0 6.0 0.00 0.00 0.00 58 1018.3
20260507111004 37 137 1.0 6.0 0.00 0.00 0.00 42 992.4
20260507110004 37 137 1.0 5.0 0.00 0.00 0.00 42 992.5
20260507105004 37 137 1.0 6.0 0.00 0.00 0.00 42 992.5
20260507104004 37 137 1.0 6.0 0.00 0.00 0.00 42 992.6
20260507103005 36 137 1.0 3.0 0.00 0.00 0.00 44 992.6
20260507102004 36 184 2.0 6.0 0.00 0.00 0.00 61 1018.4
20260507101005 36 137 1.0 6.0 0.00 0.00 0.00 44 992.6
20260507100005 36 137 1.0 6.0 0.00 0.00 0.00 44 992.7